• Join FlightAware (Why Join?)
  • Login
  • US Flag 
06:44PM EST


 

Airport Tracker/Info


-or-


 

Live Flight TrackerFlight Track Log ✈ AAL1326 ✈ 04-Apr-2013 ✈ KMCI - KORD

Flight Track Log - Related Links

Times and Time Zones

All times are in EDT time to prevent confusion due to time zone crossing. See the AAL1326 flight status page for this flight to view local times or setup timezone preferences in your user account.

Time Position Orientation Groundspeed Altitude Reporting Facility
EDT Latitude Longitude Course Direction KTS MPH feet Rate Location/Type
04:44PM 39.3167 -94.7167 45° Northeast 168 193 1,500  Level Kansas City TRACON
04:46PM 39.3997 -94.5726 46° Northeast  Level FlightAware Approximate
04:46PM 39.4000 -94.6500 32° Northeast 248 285 4,400  Level Kansas City TRACON
04:46PM 39.4103 -94.6339 50° Northeast 242 278 5,400 2,857 Climbing Kansas City Center
04:47PM 39.4728 -94.4870 41° Northeast  Level FlightAware Approximate
04:47PM 39.4558 -94.5717 47° Northeast 252 290 8,400  Level Kansas City Center
04:48PM 39.5472 -94.4032 41° Northeast  Level FlightAware Approximate
04:48PM 39.5172 -94.4856 47° Northeast 287 330 11,600  Level Kansas City Center
04:49PM 39.6174 -94.3134 45° Northeast  Level FlightAware Approximate
04:49PM 39.5803 -94.3989 47° Northeast 345 397 14,100  Level Kansas City Center
04:50PM 39.6536 -94.3147 41° Northeast 365 420 16,700 2,758 Climbing Kansas City Center
04:51PM 39.7417 -94.2097 43° Northeast 387 445 19,800 2,758 Climbing Kansas City Center
04:52PM 39.8097 -94.0789 56° Northeast 410 472 22,400 2,146 Climbing Kansas City Center
04:53PM 39.8450 -93.9508 70° East 431 496 24,200 1,824 Climbing Kansas City Center
04:54PM 39.8883 -93.8022 69° East 440 506 26,200 2,049 Climbing Kansas City Center
04:55PM 39.9422 -93.6211 69° East 451 519 28,400 1,935 Climbing Kansas City Center
04:56PM 39.9869 -93.4664 69° East 457 526 30,200 1,258 Climbing Kansas City Center
04:57PM 40.0317 -93.3100 69° East 460 529 31,000 384 Climbing Kansas City Center
04:58PM 40.0742 -93.1594 70° East 449 517 31,000  Level Kansas City Center
04:59PM 40.1231 -92.9844 70° East 443 510 31,000  Level Kansas City Center
05:00PM 40.1647 -92.8383 69° East 446 513 31,000  Level Kansas City Center
05:01PM 40.2119 -92.6669 70° East 448 516 31,000  Level Kansas City Center
05:02PM 40.2522 -92.5219 70° East 445 512 31,000  Level Kansas City Center
05:03PM 40.3011 -92.3472 70° East 454 522 31,000  Level Kansas City Center
05:04PM 40.3414 -92.1972 71° East 458 527 31,000  Level Kansas City Center
05:05PM 40.3828 -92.0431 71° East 453 521 31,000  Level Kansas City Center
05:07PM 40.4244 -91.8881 71° East 453 521 31,000  Level Kansas City Center
05:08PM 40.4658 -91.7322 71° East 456 525 31,000  Level Kansas City Center
05:08PM 40.4994 -91.6086 70° East 453 521 31,000  Level Chicago Center
05:09PM 40.5408 -91.4522 71° East 456 525 31,000  Level Chicago Center
05:10PM 40.5961 -91.2753 68° East 451 519 31,000  Level Chicago Center
05:11PM 40.6497 -91.1239 65° Northeast 453 521 31,000  Level Chicago Center
05:12PM 40.7017 -90.9708 66° East 455 524 31,000  Level Chicago Center
05:13PM 40.7539 -90.8178 66° East 458 527 31,000  Level Chicago Center
05:14PM 40.8058 -90.6653 66° East 455 524 31,000  Level Chicago Center
05:16PM 40.8558 -90.5139 66° East 448 516 31,000  Level Chicago Center
05:17PM 40.9183 -90.3275 66° East 457 526 31,000 -48 Level Chicago Center
05:18PM 40.9658 -90.1819 67° East 457 526 30,900 -585 Descending Chicago Center
05:19PM 41.0211 -90.0169 66° East 456 525 29,800 -1,366 Descending Chicago Center
05:20PM 41.0717 -89.8619 67° East 454 522 28,100 -1,887 Descending Chicago Center
05:21PM 41.1186 -89.7133 67° East 438 504 25,900 -2,129 Descending Chicago Center
05:22PM 41.1667 -89.5700 66° East 425 489 23,700 -2,129 Descending Chicago Center
05:23PM 41.2219 -89.4389 61° Northeast 410 472 21,500 -2,129 Descending Chicago Center
05:24PM 41.2742 -89.3067 62° Northeast 405 466 19,300 -2,129 Descending Chicago Center
05:25PM 41.3297 -89.1689 62° Northeast 401 461 17,100 -2,129 Descending Chicago Center
05:26PM 41.3808 -89.0400 62° Northeast 397 457 14,900 -2,274 Descending Chicago Center
05:27PM 41.4394 -88.8894 63° Northeast 383 441 12,400 -1,887 Descending Chicago Center
05:28PM 41.4872 -88.7717 62° Northeast 364 419 11,000 -677 Descending Chicago Center
05:29PM 41.5336 -88.6533 62° Northeast 361 415 11,000  Level Chicago Center
05:30PM 41.5803 -88.5356 62° Northeast 360 414 11,000 -480 Level Chicago Center
05:31PM 41.6336 -88.4236 57° Northeast 358 412 10,000 -484 Descending Chicago Center
05:32PM 41.6936 -88.3194 52° Northeast 352 405 10,000  Level Chicago Center
05:33PM 41.7658 -88.1961 52° Northeast 349 402 10,000 -532 Level Chicago Center
05:34PM 41.8181 -88.1086 51° Northeast 302 348 8,900 -1,065 Descending Chicago Center
05:35PM 41.8661 -88.0214 53° Northeast 294 338 7,800 -839 Descending Chicago Center
05:36PM 41.8833 -87.9667 67° East 295 339 7,600 -396 Descending Chicago TRACON
05:37PM 41.8833 -87.8667 90° East 284 327 7,200 -700 Descending Chicago TRACON
05:38PM 41.8833 -87.7667 90° East 249 287 6,200 -1,350 Descending Chicago TRACON
05:39PM 41.9000 -87.6833 75° East 240 276 4,500 -1,700 Descending Chicago TRACON